Flag for Germany Weather past 2 weeks in Weimar, Thuringia, Germany

Now
55 °F

Partly sunny.


Feels Like: 51 °F
Forecast: 41 / 45 °F
Wind: 17 mph from Southwest

Location: Erfurt-Bindersleben

Current Time: Oct 21, 2014 at 4:23:55 PM

Latest Report: Oct 21, 2014 at 3:50 PM


Visibility: N/A

Pressure: 29.62 "Hg

Humidity: 67%

Dew point: 45 °F

Location of WeimarLocation

Historic Weather in Weimar — Graph

°F

Weimar temperature yesterday

Maximum temperature yesterday: 64 °F (at 12:50 AM)
Minimum temperature yesterday: 46 °F (at 11:50 PM)
Average temperature yesterday: 56 °F

Past Weeks' High & Low Weather Summary

 TemperatureHumidityPressure
High68 °F (Oct 9, 3:50 PM)100% (Oct 7, 11:50 PM)30.21 "Hg (Oct 7, 11:50 PM)
Low46 °F (Oct 18, 4:50 AM)55% (Oct 15, 2:50 PM)29.65 "Hg (Oct 21, 3:20 PM)
Average57 °F84%29.89 "Hg
* Reported Oct 6 3:20 PM — Oct 21 3:20 PM, Weimar, Weather by CustomWeather, © 2014

Note: Actual official high and low records may vary slightly from our data, if they occured in-between our weather recording intervals... More about our weather records

Advertising

Weimar weather history for previous 24 hours

 ConditionsComfort  
Time TempWeatherWind HumidityBarometerVisibility
3:20 PM
Oct 21
55 °FPartly sunny.15 mph67%29.65 "HgN/A
2:50 PM55 °FPartly sunny.15 mph72%29.68 "HgN/A
2:20 PM55 °FBroken clouds.13 mph67%29.68 "HgN/A
1:50 PM55 °FBroken clouds.15 mph67%29.71 "HgN/A
1:20 PM55 °FPartly sunny.16 mph72%29.71 "HgN/A
12:50 PM54 °FBroken clouds.16 mph72%29.74 "HgN/A
12:20 PM55 °FScattered clouds.16 mph72%29.77 "HgN/A
11:50 AM55 °FScattered clouds.17 mph72%29.80 "HgN/A
11:20 AM54 °FScattered clouds.14 mph77%29.80 "HgN/A
10:50 AM52 °FPartly sunny.12 mph82%29.83 "HgN/A
10:20 AM52 °FPartly sunny.12 mph82%29.83 "HgN/A
9:50 AM54 °FPartly sunny.9 mph77%29.83 "HgN/A
9:20 AM50 °FPartly sunny.8 mph88%29.83 "HgN/A
8:50 AM48 °FBroken clouds.5 mph94%29.83 "HgN/A
8:20 AM50 °FPartly cloudy.8 mph88%29.86 "HgN/A
7:50 AM48 °FPassing clouds.8 mph94%29.86 "HgN/A
7:20 AM50 °FClear.9 mph88%29.86 "Hg10 mi
6:50 AM50 °FClear.9 mph88%29.86 "Hg10 mi
6:20 AM50 °FPassing clouds.8 mph88%29.86 "HgN/A
5:50 AM48 °FPassing clouds.9 mph94%29.89 "HgN/A
5:20 AM50 °FPassing clouds.7 mph88%29.89 "HgN/A
4:50 AM50 °FClear.12 mph88%29.89 "Hg10 mi
4:20 AM50 °FPassing clouds.8 mph88%29.89 "HgN/A
3:50 AM48 °FClear.9 mph94%29.92 "Hg10 mi
3:20 AM48 °FClear.8 mph94%29.92 "Hg10 mi
2:50 AM50 °FClear.8 mph88%29.92 "Hg10 mi
2:20 AM48 °FClear.7 mph87%29.92 "Hg10 mi
1:50 AM48 °FClear.7 mph87%29.92 "Hg10 mi
1:20 AM48 °FClear.7 mph87%29.92 "Hg10 mi
12:50 AM48 °FClear.7 mph87%29.92 "Hg10 mi
12:20 AM48 °FClear.8 mph87%29.95 "Hg10 mi
11:50 PM
Oct 20
46 °FClear.8 mph93%29.95 "Hg10 mi
11:20 PM48 °FClear.7 mph87%29.95 "Hg10 mi
10:50 PM48 °FClear.6 mph87%29.95 "Hg10 mi
10:20 PM50 °FClear.8 mph82%29.95 "Hg10 mi
9:50 PM50 °FClear.10 mph82%29.95 "Hg10 mi
9:20 PM50 °FClear.9 mph82%29.95 "Hg10 mi
8:50 PM52 °FClear.9 mph77%29.98 "Hg10 mi
8:20 PM52 °FClear.9 mph77%29.98 "Hg10 mi
7:50 PM54 °FClear.14 mph77%29.98 "Hg10 mi
7:20 PM54 °FClear.12 mph77%29.98 "Hg10 mi
6:50 PM55 °FSunny.10 mph72%29.98 "Hg10 mi
6:20 PM55 °FSunny.13 mph72%29.98 "Hg10 mi
5:50 PM55 °FSunny.13 mph72%29.98 "Hg10 mi
5:20 PM57 °FBroken clouds.13 mph67%29.98 "HgN/A
4:50 PM57 °FBroken clouds.10 mph67%30.01 "HgN/A
4:20 PM57 °FBroken clouds.14 mph67%30.01 "HgN/A
Weather by CustomWeather, © 2014

See weather overviewHow to use our weather pages